Terminal Aerodrome Forecast
Issued by NWS Memphis, TN

Home | Current Version | Previous Version | Text Only | Print | Product List | Glossary On
Versions: 1 2 3 4 5 6 7 8 9 10 11 12 13 14 15 16 17 18 19 20 21 22 23 24 25 26 27 28 29 30 31
000
FTUS44 KMEG 310300 AAA
TAFMEM
TAF AMD
KMEM 310307Z 3103/3124 16009KT 6SM -SHRA BR SCT010 BKN025
     FM310900 18010KT 4SM -SHRA BR BKN008 OVC015
     FM311500 22010KT 6SM -SHRA BKN015 BKN035
     FM311800 22012KT P6SM VCTS SCT025 BKN035CB=

USA.gov is the U.S. government's official web portal to all federal, state and local government web resources and services.